Location: Bourg-d�Oueil
(42.8588°N, 0.4991°E)
Time: 19:13:30
(UTC+00:00)

Cosmos 2237 Rocket - Pass Details

Date: 16 June 2021
Orbit: 835 x 850 km, 71.0° (Epoch: 31 July)

Event Time Altitude Azimuth Distance (km) Brightness Sun altitude
Exits shadow 23:23:28 55° 186° (S) 995 2.2 -23.3°
Maximum altitude 23:24:42 79° 113° (ESE) 854 2.1 -23.3°
Drops below altitude 10° 23:30:20 10° 27° (NNE) 2,454 5.3 -23.4°
Sets 23:32:47 0° 26° (NNE) 3,392 6.2 -23.5°
